EZY46T EGNV-EGNV

Flight info

Callsign EZY46T
Flight time 0h 22m
Altitude 10000
Route DCT TOWTE DCT
Aircraft A320/M-SDE3FGHIRWY/LB1

Departure

Time 2026-05-04 08:27
Airport Teesside International Airport (EGNV)

Arrival

Time 2026-05-04 08:50
Airport Teesside International Airport (EGNV)
Time Latitude Longitude Altitude Speed Heading
2026-05-04 08:17 54.51126 -1.43307 125 ft 0 kts 330°
2026-05-04 08:21 54.51112 -1.43293 125 ft 4 kts 328°
2026-05-04 08:22 54.51090 -1.43267 123 ft 4 kts 320°
2026-05-04 08:22 54.51071 -1.43235 122 ft 4 kts 300°
2026-05-04 08:24 54.51067 -1.43195 127 ft 0 kts 239°
2026-05-04 08:25 54.51023 -1.43322 127 ft 26 kts 239°
2026-05-04 08:25 54.50904 -1.43635 127 ft 31 kts 225°
2026-05-04 08:25 54.50717 -1.43782 127 ft 30 kts 199°
2026-05-04 08:25 54.50567 -1.44035 124 ft 30 kts 227°
2026-05-04 08:26 54.50429 -1.44295 125 ft 24 kts 227°
2026-05-04 08:27 54.52534 -1.40391 868 ft 170 kts 14°
2026-05-04 08:28 54.53320 -1.40474 1240 ft 179 kts 336°
2026-05-04 08:28 54.54119 -1.42144 1649 ft 199 kts 282°
2026-05-04 08:28 54.53811 -1.44557 1938 ft 228 kts 236°
2026-05-04 08:28 54.52860 -1.46964 2349 ft 260 kts 234°
2026-05-04 08:29 54.51790 -1.49572 2737 ft 263 kts 233°
2026-05-04 08:29 54.50828 -1.52177 2734 ft 258 kts 247°
2026-05-04 08:29 54.50268 -1.55143 2536 ft 262 kts 255°
2026-05-04 08:31 54.45235 -1.53653 1512 ft 161 kts 58°
2026-05-04 08:33 54.50029 -1.44606 223 ft 141 kts 47°
2026-05-04 08:33 54.50676 -1.43392 125 ft 132 kts 47°
2026-05-04 08:35 54.50185 -1.53300 1709 ft 254 kts 245°
2026-05-04 08:35 54.49455 -1.56063 1527 ft 253 kts 243°
2026-05-04 08:35 54.48391 -1.58234 1490 ft 226 kts 211°
2026-05-04 08:35 54.46996 -1.58939 1502 ft 200 kts 174°
2026-05-04 08:37 54.46972 -1.50310 1103 ft 146 kts 47°
2026-05-04 08:37 54.47646 -1.49059 880 ft 141 kts 47°
2026-05-04 08:37 54.48309 -1.47849 683 ft 138 kts 47°
2026-05-04 08:38 54.48958 -1.46628 488 ft 138 kts 47°
2026-05-04 08:38 54.49603 -1.45414 323 ft 137 kts 47°
2026-05-04 08:38 54.50244 -1.44204 151 ft 137 kts 48°
2026-05-04 08:40 54.50279 -1.48807 1563 ft 203 kts 226°
2026-05-04 08:40 54.49554 -1.50927 1521 ft 219 kts 249°
2026-05-04 08:40 54.48989 -1.53604 1498 ft 249 kts 250°
2026-05-04 08:41 54.48353 -1.56403 1498 ft 250 kts 239°
2026-05-04 08:41 54.47185 -1.58446 1508 ft 234 kts 207°
2026-05-04 08:41 54.45683 -1.59048 1505 ft 214 kts 172°
2026-05-04 08:41 54.44412 -1.58106 1497 ft 193 kts 129°
2026-05-04 08:42 54.44001 -1.56096 1495 ft 176 kts 78°
2026-05-04 08:42 54.44619 -1.54437 1527 ft 166 kts 37°
2026-05-04 08:42 54.45461 -1.53184 1512 ft 161 kts 47°
2026-05-04 08:42 54.46211 -1.51762 1329 ft 159 kts 48°
2026-05-04 08:43 54.46946 -1.50375 1110 ft 153 kts 48°
2026-05-04 08:43 54.47650 -1.49059 884 ft 146 kts 47°
2026-05-04 08:43 54.48331 -1.47819 678 ft 140 kts 46°
2026-05-04 08:43 54.48985 -1.46594 506 ft 138 kts 49°
2026-05-04 08:44 54.49628 -1.45368 324 ft 137 kts 48°
2026-05-04 08:44 54.50267 -1.44152 152 ft 136 kts 47°
2026-05-04 08:46 54.51400 -1.52955 1478 ft 318 kts 261°
2026-05-04 08:46 54.50660 -1.56375 1537 ft 297 kts 234°
2026-05-04 08:46 54.49054 -1.58381 1556 ft 298 kts 195°
2026-05-04 08:46 54.47043 -1.58297 1507 ft 280 kts 158°
2026-05-04 08:47 54.45598 -1.56536 1433 ft 239 kts 129°
2026-05-04 08:47 54.45170 -1.54083 1247 ft 203 kts 76°
2026-05-04 08:47 54.45908 -1.52327 1035 ft 176 kts 29°
2026-05-04 08:47 54.46707 -1.50899 1116 ft 163 kts 58°
2026-05-04 08:48 54.47433 -1.49400 982 ft 161 kts 46°
2026-05-04 08:48 54.48185 -1.48062 738 ft 151 kts 46°
2026-05-04 08:48 54.48879 -1.46777 510 ft 144 kts 47°
2026-05-04 08:48 54.49546 -1.45526 355 ft 142 kts 49°
2026-05-04 08:49 54.50203 -1.44277 158 ft 140 kts 47°
2026-05-04 08:50 54.51805 -1.42343 125 ft 24 kts 260°
2026-05-04 08:50 54.51682 -1.42474 124 ft 22 kts 193°
2026-05-04 08:51 54.51529 -1.42530 128 ft 23 kts 192°
2026-05-04 08:51 54.51357 -1.42601 128 ft 26 kts 201°
2026-05-04 08:51 54.51243 -1.42827 125 ft 26 kts 241°
2026-05-04 08:51 54.51160 -1.43065 124 ft 13 kts 238°
2026-05-04 08:52 54.51106 -1.43160 126 ft 15 kts 209°
2026-05-04 08:52 54.51071 -1.43249 123 ft 6 kts 321°
2026-05-04 08:52 54.51102 -1.43283 124 ft 5 kts 329°
2026-05-04 08:52 54.51123 -1.43304 126 ft 1 kts 330°
2026-05-04 08:53 54.51125 -1.43306 126 ft 0 kts 330°